Location: Heilbronn
(49.1548°N, 9.2780°E)
Time: 22:34:35
(UTC+01:00)

ISS - Pass Details

Date: 15 November 2017
Orbit: 402 x 407 km, 51.6° (Epoch: 19 November)

Event Time Altitude Azimuth Distance (km) Brightness Sun altitude
Exits shadow 04:55:28 25° 115° (ESE) 855 -1.6 -25.6°
Drops below altitude 10° 04:56:59 10° 114° (ESE) 1,453 -0.2 -25.3°
Sets 04:59:03 0° 114° (ESE) 2,310 1.1 -25.0°
